Time,TemperatureF,DewpointF,PressureIn,WindDirection,WindDirectionDegrees,WindSpeedMPH,WindSpeedGustMPH,Humidity,HourlyPrecipIn,Conditions,Clouds,dailyrainin,SolarRadiationWatts/m^2,SoftwareType,DateUTC
2013-02-03 00:00:00,33.9,26.8,30.20,WNW,286,0.0,5.0,75,0.00,-RA,OVC,0.00,0.0,WeatherDisplay:10.37,2013-02-03 00:00:00,
2013-02-03 00:30:00,33.6,26.5,30.21,WNW,286,0.0,3.0,75,0.00,-RA,OVC,0.00,0.0,WeatherDisplay:10.37,2013-02-03 00:30:00,
2013-02-03 01:00:00,33.2,26.4,30.21,West,279,0.0,5.0,76,0.00,-RA,OVC,0.00,0.0,WeatherDisplay:10.37,2013-02-03 01:00:00,
2013-02-03 01:30:00,32.8,26.3,30.21,West,279,0.0,4.0,77,0.00,-RA,OVC,0.00,0.0,WeatherDisplay:10.37,2013-02-03 01:30:00,
2013-02-03 02:00:00,32.8,26.7,30.20,West,279,0.0,4.0,78,0.00,-RA,OVC,0.00,0.0,WeatherDisplay:10.37,2013-02-03 02:00:00,
2013-02-03 02:30:00,32.7,26.9,30.20,WNW,282,2.0,5.0,79,0.00,-RA,OVC,0.00,0.0,WeatherDisplay:10.37,2013-02-03 02:30:00,
2013-02-03 03:00:00,32.8,27.3,30.19,WNW,288,0.0,4.0,80,0.00,-RA,OVC,0.00,0.0,WeatherDisplay:10.37,2013-02-03 03:00:00,
2013-02-03 03:30:00,32.7,27.5,30.18,WNW,288,0.0,4.0,81,0.00,-RA,OVC,0.00,0.0,WeatherDisplay:10.37,2013-02-03 03:30:00,
2013-02-03 04:00:00,32.8,27.6,30.18,West,274,0.0,6.0,81,0.00,-RA,OVC,0.00,0.0,WeatherDisplay:10.37,2013-02-03 04:00:00,
2013-02-03 04:30:00,32.8,27.6,30.18,West,277,1.0,4.0,81,0.00,-RA,OVC,0.00,0.0,WeatherDisplay:10.37,2013-02-03 04:30:00,
2013-02-03 05:00:00,32.9,27.7,30.19,West,275,2.0,5.0,81,0.00,-RA,OVC,0.00,0.0,WeatherDisplay:10.37,2013-02-03 05:00:00,
2013-02-03 05:30:00,33.4,28.2,30.17,West,262,0.0,5.0,81,0.00,-RA,OVC,0.00,0.0,WeatherDisplay:10.37,2013-02-03 05:30:00,
2013-02-03 06:00:00,33.7,28.5,30.15,WSW,255,1.0,7.0,81,0.00,-RA,OVC,0.00,0.0,WeatherDisplay:10.37,2013-02-03 06:00:00,
2013-02-03 06:30:00,34.4,29.2,30.11,WSW,239,3.0,8.0,81,0.00,-RA,OVC,0.00,0.0,WeatherDisplay:10.37,2013-02-03 06:30:00,
2013-02-03 07:00:00,35.5,30.3,30.10,West,279,2.0,12.0,81,0.00,-RA,OVC,0.00,0.0,WeatherDisplay:10.37,2013-02-03 07:00:00,
2013-02-03 07:30:00,36.1,30.5,30.11,West,275,3.0,13.0,80,0.00,-RA,OVC,0.00,0.0,WeatherDisplay:10.37,2013-02-03 07:30:00,
2013-02-03 08:00:00,36.2,30.9,30.10,West,267,3.0,12.0,81,0.00,-RA,OVC,0.00,7.0,WeatherDisplay:10.37,2013-02-03 08:00:00,
2013-02-03 08:30:00,36.4,31.1,30.08,West,264,2.0,12.0,81,0.00,-RA,OVC,0.00,19.0,WeatherDisplay:10.37,2013-02-03 08:30:00,
2013-02-03 09:00:00,37.5,31.5,30.08,West,271,6.0,12.0,79,0.00,-RA,OVC,0.00,30.0,WeatherDisplay:10.37,2013-02-03 09:00:00,
2013-02-03 09:30:00,38.5,32.3,30.06,West,261,3.0,13.0,78,0.00,-RA,OVC,0.00,33.0,WeatherDisplay:10.37,2013-02-03 09:30:00,
2013-02-03 10:00:00,39.7,33.7,30.04,West,261,6.0,15.0,79,0.00,-RA,OVC,0.00,44.0,WeatherDisplay:10.37,2013-02-03 10:00:00,
2013-02-03 10:30:00,40.8,35.4,30.02,West,270,7.0,15.0,81,0.00,-RA,OVC,0.00,54.0,WeatherDisplay:10.37,2013-02-03 10:30:00,
2013-02-03 11:00:00,42.2,36.7,30.00,West,274,8.0,20.0,81,0.00,-RA,OVC,0.00,63.0,WeatherDisplay:10.37,2013-02-03 11:00:00,
2013-02-03 11:30:00,42.8,38.0,30.00,West,273,7.0,20.0,83,0.00,-RA,OVC,0.00,46.0,WeatherDisplay:10.37,2013-02-03 11:30:00,
2013-02-03 12:00:00,43.4,38.9,29.98,West,272,7.0,18.0,84,0.00,-RA,OVC,0.00,60.0,WeatherDisplay:10.37,2013-02-03 12:00:00,
2013-02-03 12:30:00,44.3,39.8,29.97,West,274,6.0,15.0,84,0.00,-RA,OVC,0.00,39.0,WeatherDisplay:10.37,2013-02-03 12:30:00,
2013-02-03 13:00:00,44.8,40.5,29.96,WNW,290,9.0,16.0,85,0.00,-RA,OVC,0.00,44.0,WeatherDisplay:10.37,2013-02-03 13:00:00,
2013-02-03 13:30:00,45.2,41.2,29.95,West,270,9.0,17.0,86,0.00,-RA,OVC,0.00,49.0,WeatherDisplay:10.37,2013-02-03 13:30:00,
2013-02-03 14:00:00,45.6,41.6,29.94,West,279,5.0,20.0,86,0.00,-RA,OVC,0.00,46.0,WeatherDisplay:10.37,2013-02-03 14:00:00,
2013-02-03 14:30:00,46.3,42.3,29.93,WNW,292,6.0,15.0,86,0.00,-RA,OVC,0.00,35.0,WeatherDisplay:10.37,2013-02-03 14:30:00,
2013-02-03 15:00:00,46.5,42.5,29.93,WNW,284,1.0,13.0,86,0.00,-RA,OVC,0.00,28.0,WeatherDisplay:10.37,2013-02-03 15:00:00,
2013-02-03 15:30:00,46.7,43.0,29.94,West,281,1.0,8.0,87,0.00,-RA,OVC,0.00,14.0,WeatherDisplay:10.37,2013-02-03 15:30:00,
2013-02-03 16:00:00,46.9,43.2,29.94,West,278,2.0,9.0,87,0.00,-RA,OVC,0.00,9.0,WeatherDisplay:10.37,2013-02-03 16:00:00,
2013-02-03 16:30:00,47.1,43.7,29.93,West,275,1.0,7.0,88,0.00,-RA,OVC,0.00,0.0,WeatherDisplay:10.37,2013-02-03 16:30:00,
2013-02-03 17:00:00,47.2,44.2,29.93,West,279,2.0,7.0,89,0.00,-RA,OVC,0.00,0.0,WeatherDisplay:10.37,2013-02-03 17:00:00,
2013-02-03 17:30:00,47.5,44.4,29.92,West,275,0.0,6.0,89,0.00,-RA,OVC,0.00,0.0,WeatherDisplay:10.37,2013-02-03 17:30:00,
2013-02-03 18:00:00,47.6,44.5,29.92,West,274,1.0,6.0,89,0.00,-RA,OVC,0.00,0.0,WeatherDisplay:10.37,2013-02-03 18:00:00,
2013-02-03 18:30:00,47.7,44.9,29.91,West,274,1.0,6.0,90,0.00,-RA,OVC,0.00,0.0,WeatherDisplay:10.37,2013-02-03 18:30:00,
2013-02-03 19:00:00,48.1,45.3,29.92,West,274,0.0,5.0,90,0.00,-RA,OVC,0.00,0.0,WeatherDisplay:10.37,2013-02-03 19:00:00,
2013-02-03 19:30:00,48.3,45.5,29.91,West,261,1.0,5.0,90,0.00,-RA,OVC,0.00,0.0,WeatherDisplay:10.37,2013-02-03 19:30:00,
2013-02-03 20:00:00,48.3,45.5,29.91,West,272,2.0,9.0,90,0.00,-RA,OVC,0.00,0.0,WeatherDisplay:10.37,2013-02-03 20:00:00,
2013-02-03 20:30:00,48.3,45.5,29.91,West,269,3.0,10.0,90,0.00,-RA,OVC,0.00,0.0,WeatherDisplay:10.37,2013-02-03 20:30:00,
2013-02-03 21:00:00,48.1,45.3,29.90,West,274,1.0,10.0,90,0.00,-RA,OVC,0.00,0.0,WeatherDisplay:10.37,2013-02-03 21:00:00,
2013-02-03 21:30:00,48.2,45.4,29.89,West,270,2.0,10.0,90,0.00,-RA,OVC,0.00,0.0,WeatherDisplay:10.37,2013-02-03 21:30:00,
2013-02-03 22:00:00,48.3,45.2,29.89,WSW,258,3.0,12.0,89,0.00,-RA,OVC,0.00,0.0,WeatherDisplay:10.37,2013-02-03 22:00:00,
2013-02-03 22:30:00,48.5,45.4,29.88,WNW,289,5.0,12.0,89,0.00,-RA,OVC,0.00,0.0,WeatherDisplay:10.37,2013-02-03 22:30:00,
2013-02-03 23:00:00,48.7,45.6,29.88,WNW,282,3.0,13.0,89,0.00,-RA,OVC,0.00,0.0,WeatherDisplay:10.37,2013-02-03 23:00:00,
2013-02-03 23:30:00,48.8,45.7,29.87,WNW,282,6.0,12.0,89,0.00,-RA,OVC,0.00,0.0,WeatherDisplay:10.37,2013-02-03 23:30:00,